COSMOS 2251 DEB, 33789

Orbit data source: Space-Track

COSMOS 2251 DEB, 33789 is space debris in LEO originally from a launch on Wed, 16 Jun 1993 UTC launched from the Plesetsk Missile And Space Complex (PKMTR). The debris from Iridium 33, an American commercial communications satellite, has been tracked extensively since its accidental collision with the defunct Russian satellite Cosmos 2251 in 2009. This event, occurring at high speed in low Earth orbit (LEO), generated thousands of pieces of space debris, significantly increasing the risk of further collisions. The Iridium 33 debris cloud has impacted space traffic management and orbital debris mitigation strategies, making it a subject of ongoing study in space situational awareness.

Loading next visibility...
Identifier
33789, 1993-036AE
Orbit
LEO
Country
Flag of CISCIS
Related business
Manufacturer
Unknown
Mission
Spacecraft
Bus & Motor
Unknown
Mass
Unknown
Launch date (UTC)
1993-06-16 (33 years ago)
Launch vehicle
Unknown
Launch site
Plesetsk Missile And Space Complex (PKMTR)
Object type
Payload
Rocket body
Debris
Shape & HBR
Unknown shape, 0.2 m
Radar Cross Section
Medium (>0.1 m² and <1 m²)

Expand to show TLE details & history
Last TLE update: 8 hours ago

TLE from 8 hours ago
0 COSMOS 2251 DEB
1 33789U 93036AE  26168.18732492  .00000367  00000-0  25533-3 0  9997
2 33789  74.0624 130.8947 0240320 203.0701 182.1390 13.89042074876846
Epoch: 2026-06-17T04:29Z
TLE epoch observation values (Epoch: 2026-06-17T04:29:44.873Z)
Latitude
24.10965°
Longitude
165.31394°
Altitude
1,110.142 km
Speed
7.211 km/s
True Right ascension
09h 12m 47s
True Declination
23° 59' 16"
Sunlit
Object was in daylight at epoch
Visualization orbit readout
Latitude
Unknown
Longitude
Unknown
Altitude
Unknown
Speed
Unknown
Apparent Right ascension
Unknown
Apparent Declination
Unknown
Sunlit
N/A
Visualization observer readout
Local Sidereal Time
22:45:29
Azimuth
Unknown
Elevation
Unknown
Doppler factor
Unknown
Orbital elements
Apogee altitude
1,105.283 km
Perigee altitude
754.041 km
Semi-major axis
7,307.799 km
Eccentricity
0.02403
Inclination
74.0624°
RAAN
130.8947°
Arg. of periapsis
203.0701°
True anomaly
182.03921°
Mean anomaly
182.139°
Eccentric anomaly
182.08881°
Mean motion
3.47427 °/min
Orbital period
103.62 mins
BSTAR
0.00025533
Loading maneuver chart data...
Computing Atmospheric mass density...

Documentation

Showing up to 5 results
|